Cairns, Australia

2:15 AM AEST on August 23, 2017 (GMT +1000)
Cairns International

Weather History for YBCS - May, 2014

Change the Weather History Date:

Monday, May 26, 2014

  Actual Average Record
Temperature  
Mean Temperature 76 °F -  
Max Temperature 82 °F 79 °F 84 °F (2016)
Min Temperature 70 °F 65 °F 55 °F (2011)
Cooling Degree Days 11    
Growing Degree Days 26 (Base 50)    
Moisture  
Dew Point 67 °F    
Average Humidity 74    
Maximum Humidity 88    
Minimum Humidity 48    
Precipitation  
Precipitation 0.01 in 0.08 in - ()
Sea Level Pressure  
Sea Level Pressure 30.04 in    
Wind  
Wind Speed 12 mph ()    
Max Wind Speed 22 mph    
Max Gust Speed -    
Visibility 7.2 miles    
Events Rain    
Averages and records for this station are not official NWS values.
T = Trace of Precipitation, MM = Missing Value Source: Averaged Metar Reports

Daily Weather History Graph

Daily Weather History Graph

Search for Another Location

Airport or City:

Trip Planner

Search our weather history database for the weather conditions in past years. The results will help you decide how hot, cold, wet, or windy it might be!

Date:

Astronomy

May. 26, 2014 Rise Set
Actual Time 6:37 AM AEST 5:50 PM AEST
Civil Twilight 6:13 AM AEST 6:13 PM AEST
Nautical Twilight 5:47 AM AEST 6:40 PM AEST
Astronomical Twilight 5:20 AM AEST 7:06 PM AEST
Moon 4:02 AM AEST (5/26) 3:56 PM AEST (5/26)
Length of Visible Light 12h 00m
Length of Day
11h 13m
Waning Crescent, 8% of the Moon is Illuminated
May 26
Waning Crescent
May 29
New
Jun 6
First Quarter
Jun 13
Full
Jun 20
Last Quarter

Hourly Weather History & Observations

Time (AEST) Temp. Heat Index Dew Point Humidity Pressure Visibility Wind Dir Wind Speed Gust Speed Precip Events Conditions
12:00 AM 73 °F - 67 °F 76% 30.06 in - South 10.4 mph - -  
12:00 AM 73.4 °F - 68.0 °F 83% 30.06 in 6.2 mi South 10.4 mph - N/A   Scattered Clouds
12:30 AM 73.4 °F - 68.0 °F 83% 30.04 in 6.2 mi SSE 10.4 mph - N/A   Partly Cloudy
1:00 AM 73 °F - 67 °F 76% 30.05 in - South 10.4 mph - -  
1:00 AM 73.4 °F - 66.2 °F 78% 30.04 in 6.2 mi South 10.4 mph - N/A   Partly Cloudy
1:30 AM 73.4 °F - 66.2 °F 78% 30.04 in 6.2 mi SSE 10.4 mph - N/A   Partly Cloudy
2:00 AM 71.6 °F - 66.2 °F 83% 30.04 in 6.2 mi SSE 11.5 mph - N/A   Scattered Clouds
2:30 AM 71.6 °F - 66.2 °F 83% 30.04 in 6.2 mi SSE 10.4 mph - N/A   Scattered Clouds
3:00 AM 72 °F - 67 °F 78% 30.03 in - South 11.5 mph - -  
3:00 AM 73.4 °F - 66.2 °F 78% 30.01 in 6.2 mi South 11.5 mph - N/A   Scattered Clouds
3:30 AM 69.8 °F - 66.2 °F 88% 30.01 in 6.2 mi SE 10.4 mph - N/A   Scattered Clouds
4:00 AM 72 °F - 66 °F 77% 30.03 in - SSE 12.7 mph - -  
4:00 AM 71.6 °F - 66.2 °F 83% 30.01 in 6.2 mi SSE 12.7 mph - N/A   Partly Cloudy
4:30 AM 71.6 °F - 66.2 °F 83% 30.01 in 6.2 mi SSE 13.8 mph - N/A   Scattered Clouds
5:00 AM 73.4 °F - 66.2 °F 78% 30.01 in 6.2 mi SSE 11.5 mph - N/A   Scattered Clouds
5:30 AM 71.6 °F - 66.2 °F 83% 30.04 in 6.2 mi SSE 12.7 mph - N/A   Scattered Clouds
6:00 AM 72 °F - 66 °F 76% 30.04 in 19 mi SSE 12.7 mph - -   Partly Cloudy
6:00 AM 71.6 °F - 66.2 °F 83% 30.04 in 6.2 mi SSE 12.7 mph - N/A   Partly Cloudy
6:30 AM 71.6 °F - 66.2 °F 83% 30.04 in 6.2 mi SSE 11.5 mph - N/A   Partly Cloudy
7:00 AM 72 °F - 66 °F 77% 30.06 in - SSE 12.7 mph - -  
7:00 AM 73.4 °F - 66.2 °F 78% 30.04 in 6.2 mi SSE 12.7 mph - N/A   Partly Cloudy
7:30 AM 73.4 °F - 66.2 °F 78% 30.06 in 6.2 mi SSE 11.5 mph - N/A   Partly Cloudy
8:00 AM 75.2 °F - 66.2 °F 73% 30.06 in 6.2 mi South 11.5 mph - N/A   Partly Cloudy
8:30 AM 75.2 °F - 68.0 °F 78% 30.06 in 6.2 mi South 11.5 mph - N/A   Partly Cloudy
9:00 AM 78 °F - 68 °F 63% 30.08 in 19 mi SSE 12.7 mph - -   Partly Cloudy
9:00 AM 77.0 °F - 68.0 °F 74% 30.06 in 6.2 mi SSE 12.7 mph - N/A   Partly Cloudy
9:30 AM 78.8 °F - 66.2 °F 65% 30.06 in 6.2 mi SE 17.3 mph - N/A   Scattered Clouds
10:00 AM 79 °F - 67 °F 60% 30.09 in - SE 18.4 mph - -  
10:00 AM 78.8 °F - 68.0 °F 69% 30.06 in 6.2 mi SE 18.4 mph - N/A   Scattered Clouds
10:30 AM 80.6 °F 83.2 °F 68.0 °F 65% 30.06 in 6.2 mi SE 16.1 mph - N/A   Scattered Clouds
11:00 AM 80.6 °F 83.2 °F 68.0 °F 65% 30.06 in 6.2 mi SE 17.3 mph - N/A   Partly Cloudy
11:30 AM 80.6 °F 83.2 °F 68.0 °F 65% 30.04 in 6.2 mi SE 19.6 mph - N/A   Partly Cloudy
12:00 PM 80 °F - 67 °F 56% 30.05 in 19 mi SE 17.3 mph - -   Partly Cloudy
12:00 PM 80.6 °F 82.7 °F 66.2 °F 61% 30.04 in 6.2 mi SE 17.3 mph - N/A   Partly Cloudy
12:30 PM 80.6 °F 82.3 °F 64.4 °F 58% 30.04 in 6.2 mi SE 21.9 mph - N/A   Partly Cloudy
1:00 PM 82 °F - 66 °F 48% 30.03 in - SE 20.7 mph - -  
1:00 PM 82.4 °F 84.6 °F 66.2 °F 58% 30.01 in 6.2 mi SE 20.7 mph - N/A   Partly Cloudy
1:30 PM 80.6 °F 82.7 °F 66.2 °F 61% 30.01 in 6.2 mi SE 18.4 mph - N/A   Partly Cloudy
2:00 PM 80.6 °F 82.7 °F 66.2 °F 61% 30.01 in 6.2 mi SSE 19.6 mph - N/A   Partly Cloudy
2:30 PM 80.6 °F 82.7 °F 66.2 °F 61% 30.01 in 6.2 mi SSE 18.4 mph - N/A   Scattered Clouds
3:00 PM 80 °F - 67 °F 55% 30.00 in 19 mi SE 17.3 mph - -   Partly Cloudy
3:00 PM 78.8 °F - 66.2 °F 65% 30.01 in 6.2 mi SE 17.3 mph - N/A   Mostly Cloudy
3:30 PM 80.6 °F 82.7 °F 66.2 °F 61% 29.98 in 6.2 mi SSE 16.1 mph - N/A   Mostly Cloudy
4:00 PM 78 °F - 68 °F 65% 30.01 in - SE 17.3 mph - -  
4:00 PM 78.8 °F - 68.0 °F 69% 30.01 in 5.6 mi SE 17.3 mph - N/A Rain Light Rain Showers
4:30 PM 75.2 °F - 69.8 °F 83% 30.01 in 6.2 mi South 12.7 mph - N/A   Mostly Cloudy
5:00 PM 75.2 °F - 68.0 °F 78% 30.01 in 6.2 mi SSE 12.7 mph - N/A   Mostly Cloudy
5:30 PM 75.2 °F - 68.0 °F 78% 30.04 in 6.2 mi South 10.4 mph - N/A   Mostly Cloudy
6:00 PM 75 °F - 68 °F 72% 30.04 in - South 9.2 mph - -   Overcast
6:00 PM 75.2 °F - 68.0 °F 78% 30.04 in 6.2 mi South 9.2 mph - N/A   Mostly Cloudy
6:30 PM 75.2 °F - 68.0 °F 78% 30.04 in 6.2 mi South 9.2 mph - N/A   Mostly Cloudy
7:00 PM 74 °F - 68 °F 75% 30.06 in - SSE 11.5 mph - -  
7:00 PM 73.4 °F - 68.0 °F 83% 30.04 in 6.2 mi SSE 11.5 mph - N/A Rain Light Rain Showers
7:19 PM 73.4 °F - 69.8 °F 88% 30.04 in 6.2 mi South 10.4 mph - N/A   Mostly Cloudy
7:30 PM 73.4 °F - 68.0 °F 83% 30.04 in 6.2 mi South 11.5 mph - N/A   Mostly Cloudy
8:00 PM 73.4 °F - 69.8 °F 88% 30.06 in 6.2 mi South 12.7 mph - N/A   Mostly Cloudy
8:30 PM 73.4 °F - 68.0 °F 83% 30.06 in 6.2 mi South 12.7 mph - N/A   Mostly Cloudy
9:00 PM 73 °F - 68 °F 78% 30.08 in - South 10.4 mph - -  
9:00 PM 73.4 °F - 68.0 °F 83% 30.06 in 6.2 mi South 10.4 mph - N/A   Scattered Clouds
9:30 PM 73.4 °F - 68.0 °F 83% 30.06 in 6.2 mi South 10.4 mph - N/A   Scattered Clouds
10:00 PM 73 °F - 68 °F 79% 30.08 in - SSE 10.4 mph - -  
10:00 PM 73.4 °F - 68.0 °F 83% 30.06 in 6.2 mi SSE 10.4 mph - N/A   Scattered Clouds
10:30 PM 73.4 °F - 68.0 °F 83% 30.06 in 6.2 mi South 10.4 mph - N/A   Scattered Clouds
11:00 PM 73.4 °F - 68.0 °F 83% 30.06 in 6.2 mi South 10.4 mph - N/A   Scattered Clouds
11:30 PM 73.4 °F - 68.0 °F 83% 30.04 in 6.2 mi South 10.4 mph - N/A   Scattered Clouds